Overview Statistics Trail Chart Weather Telemetry Raw packets
 

This is the latest recevied weather packets stored in our database for station/object SV6GMP-10. If no packets are shown the sender has not sent any weather packets the latest 10 day(s).

<< 1 2 3 4 5 6 >>
Time Temp. Humidity Pressure Rain* Wind** Luminosity Snow
1788560303 31.11° C 65% 1016.2 hPa - - - -
1788559403 31.11° C 66% 1016.2 hPa - - - -
1788558503 31.11° C 66% 1016.1 hPa - - - -
1788557603 31.67° C 63% 1016 hPa - - - -
1788556703 31.67° C 61% 1016 hPa - - - -
1788555803 31.67° C 59% 1016 hPa - - - -
1788554903 32.22° C 58% 1015.9 hPa - - - -
1788554003 32.22° C 58% 1015.9 hPa - - - -
1788553102 32.22° C 58% 1015.9 hPa - - - -
1788552202 32.22° C 57% 1015.9 hPa - - - -
1788551324 32.22° C 58% 1015.9 hPa - - - -
1788550402 32.22° C 59% 1015.8 hPa - - - -
1788549502 32.22° C 59% 1015.8 hPa - - - -
1788548602 32.22° C 59% 1015.8 hPa - - - -
1788547702 32.22° C 59% 1015.5 hPa - - - -
1788546802 32.22° C 60% 1015.4 hPa - - - -
1788545902 32.22° C 61% 1015.1 hPa - - - -
1788545002 32.22° C 61% 1015.1 hPa - - - -
1788544102 31.67° C 62% 1014.8 hPa - - - -
1788543202 32.22° C 61% 1014.7 hPa - - - -
1788542302 32.22° C 60% 1014.5 hPa - - - -
1788541402 32.78° C 59% 1014.3 hPa - - - -
1788540506 32.22° C 61% 1014.3 hPa - - - -
1788540502 32.22° C 61% 1014.3 hPa - - - -
1788539602 32.22° C 59% 1014.3 hPa - - - -

* Rain since midnight (hover to see other rain measurements)
** Current wind speed in m/s (hover to see current wind gust speed)